Weather History for KFIT - March, 2014

Change the Weather History Date:

Monday, March 3, 2014

  Actual Average (KORH) Record (KORH)
Temperature  
Mean Temperature 18 °F 31 °F  
Max Temperature 26 °F 39 °F 65 °F (1991)
Min Temperature 8 °F 23 °F -4 °F (1950)
Degree Days  
Heating Degree Days 47 34  
Month to date heating degree days 104  
Since 1 July heating degree days 4941  
Cooling Degree Days 0 0  
Month to date cooling degree days 0  
Year to date cooling degree days 0  
Moisture  
Dew Point 0 °F    
Average Humidity 47    
Maximum Humidity 63    
Minimum Humidity 30    
Precipitation  
Precipitation 0.00 in 0.12 in 2.51 in (1972)
Month to date precipitation 0.38  
Year to date precipitation 7.10  
Sea Level Pressure  
Sea Level Pressure 30.16 in    
Wind  
Wind Speed 10 mph (NW)    
Max Wind Speed 14 mph    
Max Gust Speed -    
Visibility 10 miles    
Events      
T = Trace of Precipitation, MM = Missing Value Source: NWS Daily Summary

Daily Weather History Graph

Daily Weather History Graph

Search for Another Location

Airport or City:

Trip Planner

Search our weather history database for the weather conditions in past years. The results will help you decide how hot, cold, wet, or windy it might be!

Date:

Astronomy

Mar. 03, 2014 Rise Set
Actual Time 6:19 AM EST 5:39 PM EST
Civil Twilight 5:51 AM EST 6:07 PM EST
Nautical Twilight 5:18 AM EST 6:40 PM EST
Astronomical Twilight 4:45 AM EST 7:12 PM EST
Moon 7:21 AM EST 8:43 PM EST
Length of Visible Light 12h 16m
Length of Day
11h 19m
Waxing Crescent, 8% of the Moon is Illuminated
Mar 3
Waxing Crescent
Mar 8
First Quarter
Mar 16
Full
Mar 23
Last Quarter
Mar 30
New

Hourly Weather History & Observations

Time (EST) Temp. Windchill Dew Point Humidity Pressure Visibility Wind Dir Wind Speed Gust Speed Precip Events Conditions
12:52 AM 26.1 °F 16.2 °F 12.9 °F 58% 30.02 in 10.0 mi NNW 10.4 mph - N/A   Overcast
1:52 AM 24.1 °F 13.7 °F 12.0 °F 60% 30.02 in 10.0 mi NNW 10.4 mph - N/A   Overcast
2:52 AM 23.0 °F 11.1 °F 12.0 °F 63% 30.01 in 10.0 mi NW 12.7 mph - N/A   Mostly Cloudy
3:52 AM 21.0 °F 9.3 °F 7.0 °F 55% 30.04 in 10.0 mi NNW 11.5 mph - N/A   Overcast
4:52 AM 19.0 °F 6.1 °F 3.9 °F 52% 30.06 in 10.0 mi NNW 12.7 mph - N/A   Overcast
5:52 AM 17.1 °F 3.6 °F 1.9 °F 52% 30.10 in 10.0 mi NNW 12.7 mph - N/A   Partly Cloudy
6:52 AM 17.1 °F 5.0 °F 1.9 °F 52% 30.12 in 10.0 mi NNW 10.4 mph - N/A   Clear
7:52 AM 17.1 °F 5.8 °F 1.0 °F 50% 30.14 in 10.0 mi NNW 9.2 mph - N/A   Clear
8:52 AM 17.1 °F 5.8 °F 1.0 °F 50% 30.13 in 10.0 mi NW 9.2 mph - N/A   Clear
9:52 AM 19.0 °F 9.0 °F -0.0 °F 43% 30.14 in 10.0 mi NNW 8.1 mph - N/A   Clear
10:52 AM 19.0 °F 8.2 °F -0.9 °F 42% 30.15 in 10.0 mi NNW 9.2 mph - N/A   Clear
11:52 AM 19.9 °F 8.6 °F -2.0 °F 38% 30.15 in 10.0 mi NNW 10.4 mph - N/A   Clear
12:52 PM 19.9 °F 8.6 °F -0.0 °F 42% 30.13 in 10.0 mi WNW 10.4 mph - N/A   Clear
1:52 PM 21.0 °F 8.1 °F -0.9 °F 38% 30.13 in 10.0 mi NW 13.8 mph - N/A   Clear
2:52 PM 21.0 °F 8.6 °F -0.9 °F 38% 30.14 in 10.0 mi WNW 12.7 mph - N/A   Clear
3:52 PM 21.9 °F 10.4 °F -2.9 °F 34% 30.16 in 10.0 mi NW 11.5 mph - N/A   Clear
4:52 PM 21.9 °F 11.7 °F -5.1 °F 30% 30.18 in 10.0 mi NNW 9.2 mph - N/A   Clear
5:52 PM 19.9 °F 9.3 °F -5.1 °F 33% 30.21 in 10.0 mi NW 9.2 mph - N/A   Clear
6:52 PM 18.0 °F 7.7 °F -6.0 °F 35% 30.25 in 10.0 mi NW 8.1 mph - N/A   Clear
7:52 PM 16.0 °F 7.4 °F -6.0 °F 38% 30.27 in 10.0 mi NW 5.8 mph - N/A   Clear
8:52 PM 15.1 °F - -4.0 °F 43% 30.28 in 10.0 mi Calm Calm - N/A   Clear
9:52 PM 10.0 °F - -2.9 °F 56% 30.30 in 10.0 mi Calm Calm - N/A   Clear
10:52 PM 10.9 °F - -2.9 °F 54% 30.30 in 10.0 mi Calm Calm - N/A   Clear
11:52 PM 8.1 °F 1.4 °F -2.9 °F 61% 30.31 in 10.0 mi NNW 3.5 mph - N/A   Clear